RH
38 38 38 37 37 36 35 33 32 31 30 29 28 27 26 25 24 23 23 22 22 22 21 21 21 20 20 20 20 19 19 19 19 20 20 21 21 22 22 23 23 23 23 23 23 23 22 22 21 21 20 19 18 17 16 15 14 13 12 12 11 10 10 10 11 11 12 14 15 17 18 19 20 21 22 22 23 23 23 23 22 22 21 21 20 20
37 38 38 38 37 37 36 35 33 32 31 30 29 28 27 26 25 25 24 23 23 23 22 22 22 21 21 21 20 20 19 19 19 19 19 19 20 20 21 22 22 23 23 23 23 23 23 23 22 22 21 21 20 19 18 17 16 15 14 13 12 11 10 10 10 10 10 11 12 13 15 17 18 19 21 22 22 23 23 23 23 23 22 22 21 21
37 38 38 38 38 37 37 35 34 33 32 31 30 29 29 28 27 26 25 25 24 24 24 23 23 22 22 21 21 21 20 20 19 19 19 19 19 19 20 20 21 22 22 23 23 23 23 23 23 23 23 22 21 21 20 19 18 17 16 14 13 12 11 11 10 10 9 9 10 10 12 13 15 16 18 20 21 22 23 23 23 23 23 22 22 21
38 38 38 38 38 37 37 36 35 34 33 32 31 31 30 29 28 28 27 26 26 26 25 25 24 24 23 23 22 22 21 20 20 20 19 19 19 19 19 20 20 21 21 22 22 23 23 23 23 23 23 23 22 22 21 20 20 19 18 17 15 14 13 12 11 10 9 9 9 9 9 10 11 13 14 16 18 19 21 22 22 23 23 22 22 21
38 38 38 38 38 38 37 37 36 35 34 33 32 31 31 30 30 29 29 28 28 27 27 26 26 26 25 24 24 23 22 22 21 20 20 19 19 19 19 19 19 20 21 21 22 22 23 23 23 23 23 23 23 23 22 22 21 20 20 19 18 17 15 14 13 12 11 10 9 8 8 8 9 10 11 12 14 16 18 19 20 21 21 21 21 20
39 39 39 39 39 39 38 38 37 36 35 34 33 32 32 31 31 30 30 30 29 29 28 28 28 27 27 26 26 25 24 23 22 22 21 20 20 19 19 19 19 19 20 20 21 22 22 22 23 23 23 23 23 23 23 22 22 21 21 20 20 19 18 17 15 14 13 12 11 10 9 8 8 8 8 9 10 12 13 15 17 18 19 19 19 19
41 40 40 40 40 40 40 39 38 37 36 35 34 33 32 32 32 31 31 31 31 30 30 30 29 29 29 29 28 27 26 25 24 23 22 22 21 20 19 19 19 19 19 20 20 21 21 22 22 23 23 23 23 23 23 22 22 22 21 21 21 20 20 19 18 17 16 14 13 12 11 10 9 8 8 8 8 9 10 11 13 14 15 16 17 17
42 42 41 42 42 41 41 40 39 38 37 35 35 34 33 33 32 32 32 32 32 32 31 31 31 31 31 31 30 30 29 27 26 25 24 23 22 21 21 20 20 19 19 20 20 20 21 21 21 22 22 23 23 23 23 23 23 22 22 21 21 21 20 20 19 19 18 17 16 15 14 12 11 10 9 8 8 7 8 8 9 10 12 13 14 14
44 44 43 43 43 42 42 41 39 38 37 36 35 35 34 33 33 33 33 33 33 33 33 33 32 32 32 32 32 32 31 30 29 28 27 26 24 23 22 21 21 20 20 20 20 20 20 21 21 21 22 22 23 23 24 24 23 23 22 22 21 21 21 20 20 20 19 19 18 18 17 16 14 13 12 10 9 8 8 7 8 8 9 10 11 11
46 45 45 44 43 43 43 42 40 39 38 37 36 36 35 35 35 34 34 34 34 34 34 34 33 33 33 33 33 33 33 33 32 31 29 28 27 25 24 23 22 21 21 20 20 20 20 21 21 21 21 21 22 22 23 24 24 24 24 23 22 22 21 21 20 20 20 19 19 19 18 18 17 16 15 14 12 11 10 9 8 7 7 8 8 9
47 47 46 45 44 43 43 42 41 40 40 39 38 37 37 36 36 36 36 35 35 35 35 34 34 34 34 34 34 34 35 35 35 34 32 31 29 28 26 25 24 23 22 21 21 21 21 21 21 21 21 21 21 21 22 23 23 24 24 24 24 23 22 22 21 20 20 19 19 19 19 18 18 18 18 17 16 15 13 12 10 9 8 7 7 7
49 48 47 46 45 44 44 43 42 42 41 41 40 39 39 38 37 37 37 37 36 36 35 35 35 35 35 35 35 35 35 36 36 36 35 33 32 30 29 27 26 24 23 22 22 21 21 21 21 21 21 21 21 21 21 22 22 23 24 24 24 24 24 23 22 22 21 20 19 19 18 18 18 18 18 18 18 17 16 15 14 12 11 9 8 7
50 49 48 47 46 46 45 45 44 43 42 42 42 42 41 40 39 39 39 38 38 37 37 36 36 36 36 36 36 36 36 37 37 37 36 35 34 32 31 29 28 26 25 24 23 22 22 22 21 21 21 21 21 21 21 21 22 22 23 23 23 24 24 24 23 23 22 22 21 20 19 18 18 18 18 18 18 18 18 17 17 16 14 13 11 10
51 50 50 49 48 48 47 46 46 45 44 44 43 43 43 43 42 42 41 40 39 39 38 38 37 37 37 37 37 37 37 37 37 37 37 36 35 34 33 32 30 28 27 26 24 23 23 22 22 22 22 22 22 22 22 22 22 22 22 22 22 23 23 23 23 23 23 23 22 22 21 20 19 18 18 17 17 17 17 17 17 17 17 16 15 13
53 53 52 51 50 50 49 48 47 47 46 46 45 45 45 45 45 44 44 43 41 40 39 39 38 38 38 38 38 38 38 38 38 38 38 37 35 35 34 33 32 30 29 28 26 25 24 24 23 23 23 23 23 23 22 22 22 22 22 22 22 22 22 22 23 23 23 23 23 23 23 22 21 21 20 19 18 17 17 16 16 16 17 17 16 16
56 56 55 54 53 52 51 50 49 49 48 47 47 47 47 47 47 46 46 45 43 42 42 41 41 40 39 38 38 38 39 39 39 39 39 38 36 35 35 35 34 32 31 30 28 27 26 25 25 25 24 24 24 24 24 23 23 23 23 23 23 22 22 22 22 22 22 23 23 23 23 23 23 23 22 21 21 20 18 18 17 16 16 16 16 16
59 58 57 56 55 54 52 51 51 51 50 50 49 49 49 49 48 47 47 46 45 45 44 44 44 44 42 40 38 38 39 39 40 40 41 40 38 36 36 36 35 34 33 32 31 29 28 27 26 26 26 25 25 25 25 24 24 24 24 23 23 23 23 23 23 22 22 22 22 22 23 23 23 23 23 23 23 22 22 21 20 18 17 17 16 16
61 60 59 58 57 56 54 53 52 52 51 51 51 50 49 49 49 48 48 48 48 48 47 46 46 46 45 43 40 38 38 40 40 41 42 42 40 38 37 37 36 36 35 34 33 31 30 29 28 28 27 26 26 26 26 26 25 25 25 24 24 24 24 23 23 23 22 22 22 22 22 22 22 23 23 23 23 24 23 23 23 22 21 20 18 17
62 61 61 60 58 57 56 55 54 53 53 52 51 51 50 49 49 49 49 49 49 49 49 49 48 47 47 45 42 39 39 41 41 42 43 43 42 40 39 38 38 37 36 35 34 33 32 31 30 29 28 28 27 27 27 27 26 26 26 26 25 25 25 24 24 24 23 23 22 22 22 22 22 22 23 23 23 23 24 24 24 24 24 23 22 21
64 63 62 60 59 58 57 56 55 54 54 53 52 52 51 50 50 50 50 49 49 49 49 50 49 48 48 46 43 42 41 42 43 43 44 45 43 42 40 40 39 38 38 37 36 35 34 33 31 30 30 29 29 29 29 28 28 28 27 27 27 26 26 26 25 25 24 24 23 23 23 22 22 22 23 23 23 23 24 24 24 24 24 24 24 24
66 64 62 61 60 59 58 56 55 55 54 53 53 52 52 51 51 51 50 49 49 49 49 50 50 48 47 47 45 44 43 44 44 44 45 46 45 43 42 42 41 40 39 39 37 36 35 34 33 32 31 31 30 30 30 30 30 30 29 29 29 28 27 27 26 26 25 25 24 24 24 24 23 23 23 24 24 24 24 24 24 25 25 25 25 25
67 65 63 62 61 60 58 57 57 56 54 54 53 53 52 52 52 51 49 50 50 50 49 50 49 48 48 48 47 46 46 47 46 46 46 47 46 44 43 43 43 42 41 41 40 38 37 36 35 35 34 33 33 32 32 32 32 32 31 31 30 30 29 28 28 27 27 26 26 26 25 25 25 25 25 25 25 25 25 25 26 26 26 26 26 25
68 67 65 64 62 61 59 58 57 56 54 54 54 53 52 52 52 51 50 50 50 49 49 49 49 49 49 49 49 48 48 48 48 47 48 49 48 46 45 45 44 43 43 43 42 41 40 39 38 37 36 35 35 35 34 34 34 34 33 33 32 32 31 30 30 29 28 28 27 27 27 26 26 26 26 26 26 27 27 27 27 27 27 27 27 27
68 68 66 65 63 62 60 59 58 57 55 55 54 53 53 53 52 51 51 51 50 50 50 50 50 50 50 50 50 50 49 48 48 48 49 49 48 47 47 47 46 45 44 44 44 43 42 42 41 40 38 37 37 36 36 36 35 35 35 35 34 33 33 32 32 31 30 29 29 28 28 28 28 28 28 28 28 28 28 28 28 28 28 28 28 28
69 68 67 66 65 63 62 61 59 58 57 56 55 54 54 53 53 52 52 52 52 51 51 51 52 52 50 50 50 49 48 48 49 49 49 49 49 49 48 48 48 47 46 46 46 46 45 44 43 42 41 40 39 39 38 38 38 37 37 36 36 35 35 34 34 33 32 31 31 30 30 30 30 30 30 30 30 30 30 30 30 30 30 30 30 30
71 70 68 67 66 65 64 63 62 61 60 59 58 57 56 56 55 55 55 54 54 53 53 54 54 53 51 51 51 50 48 49 49 50 50 50 51 50 49 49 49 49 48 48 48 48 48 47 46 45 44 43 42 41 41 40 40 40 39 39 38 37 37 36 36 35 34 34 33 32 32 31 31 31 31 32 32 32 32 32 32 32 31 31 31 31
73 72 71 70 69 68 66 65 64 64 63 62 61 60 59 59 59 59 59 57 57 57 57 56 56 55 54 54 53 51 50 50 50 50 50 52 52 51 50 51 51 50 49 50 50 50 50 49 48 48 47 45 44 44 43 43 42 42 41 41 40 40 39 38 38 37 36 35 35 34 34 33 33 33 33 33 33 33 33 33 33 33 33 33 32 32
74 73 73 72 72 71 69 68 67 66 65 64 63 62 62 62 62 62 61 60 60 60 59 58 59 59 58 57 56 54 53 53 52 51 51 53 53 52 51 52 52 51 50 51 51 51 51 51 51 50 50 48 47 46 46 45 45 44 43 43 42 42 41 40 40 39 38 38 37 36 36 35 35 35 35 35 34 34 34 34 34 34 34 34 33 33
76 75 74 74 73 73 72 71 70 69 68 67 66 65 64 65 65 65 63 62 63 63 61 60 61 62 61 60 59 58 57 56 54 53 53 54 53 52 52 53 53 52 51 52 52 52 53 53 52 52 51 50 50 49 48 48 47 46 46 45 44 43 43 42 42 41 41 40 39 39 38 38 37 37 36 36 36 35 35 35 35 35 34 34 34 34
77 77 76 76 75 74 74 73 72 71 70 70 69 68 67 67 67 66 65 65 65 65 64 63 63 64 63 62 62 62 61 59 58 56 56 56 54 53 54 55 54 52 52 53 53 52 53 53 54 54 53 52 51 51 51 50 49 49 48 47 46 45 45 44 44 43 43 43 42 42 41 40 40 39 38 38 37 37 36 36 35 35 35 35 34 34
78 78 78 77 77 76 76 75 74 73 72 72 71 70 70 69 68 68 67 67 67 67 66 66 66 65 65 65 65 66 64 62 60 59 58 58 56 55 56 57 55 53 53 54 54 53 52 54 55 55 55 54 53 53 53 53 52 51 50 49 49 48 47 47 46 46 45 45 45 44 43 43 42 41 40 40 39 38 37 37 36 36 35 35 34 34
78 78 78 78 77 77 77 76 76 75 74 74 73 72 72 71 70 70 69 68 68 67 68 67 67 67 66 67 67 67 66 65 63 62 61 60 58 57 58 59 57 55 54 55 54 53 52 53 54 55 56 56 56 55 55 55 54 53 52 52 51 50 50 49 49 48 47 47 47 46 46 45 44 43 42 42 41 40 39 38 37 36 36 35 34 34
78 78 78 78 78 78 77 77 76 76 75 74 74 73 72 72 71 70 70 70 69 68 68 68 68 68 68 68 67 67 67 66 65 64 63 62 60 59 59 60 59 57 56 55 54 53 52 52 53 54 56 57 57 58 58 57 56 55 54 54 53 52 51 51 51 50 50 49 49 48 48 47 46 45 44 43 42 41 41 40 38 37 36 35 35 34
78 78 78 78 78 78 77 77 77 76 75 75 74 73 72 72 71 71 70 70 70 69 68 68 68 68 68 68 68 68 68 67 66 64 63 63 62 61 61 61 60 59 57 56 55 53 53 52 52 53 54 55 57 58 59 59 58 58 57 56 55 54 54 54 53 53 51 51 51 50 49 48 47 46 45 44 43 42 41 40 39 38 37 36 35 34
78 78 78 78 77 77 77 77 77 76 75 75 74 73 73 72 71 71 70 70 69 68 68 68 68 68 68 68 68 68 68 67 66 65 63 62 61 61 61 61 60 59 59 57 56 55 54 53 52 52 53 53 55 57 59 60 60 59 59 58 58 57 56 56 55 55 53 52 51 51 49 49 48 47 45 45 44 43 42 41 39 38 37 36 35 34
77 77 77 77 77 77 77 77 77 76 76 75 74 73 73 72 71 70 70 69 69 68 68 68 68 68 68 68 68 68 68 67 66 65 64 62 61 61 61 60 60 60 60 58 57 56 56 54 53 52 53 53 54 55 57 59 59 59 59 59 59 59 58 58 57 56 54 53 52 51 50 49 47 46 45 44 43 42 41 40 39 38 36 35 34 33
77 77 76 77 77 77 76 76 76 76 76 75 74 74 73 72 71 70 70 69 69 68 68 68 67 67 68 68 68 68 68 67 66 65 64 62 61 61 61 59 59 59 60 59 57 56 56 56 54 53 53 54 54 54 55 57 58 59 59 59 60 60 59 58 57 56 55 53 52 51 50 48 47 46 45 44 43 41 40 39 38 36 35 34 33 32
76 76 76 76 76 76 76 76 76 76 75 75 74 73 73 73 72 71 70 69 69 68 68 67 67 67 67 67 67 67 67 67 66 65 64 63 61 61 60 59 58 58 59 58 57 56 56 56 55 54 54 54 54 54 54 55 57 58 58 58 59 59 58 57 56 55 54 52 51 50 49 48 46 45 44 43 41 40 39 38 36 35 34 33 32 31
76 75 75 75 75 75 75 75 75 75 75 74 74 73 73 72 72 71 71 70 70 69 68 68 68 67 67 67 67 67 67 66 66 65 64 63 62 61 60 59 58 57 57 57 57 56 55 55 55 55 54 54 54 54 55 56 57 57 57 57 58 58 57 56 55 54 53 51 50 49 48 47 45 44 43 42 40 39 37 36 35 34 33 32 31 31
75 75 74 74 74 75 75 74 74 74 74 74 73 72 72 72 72 72 71 71 70 70 69 68 68 67 67 67 67 67 66 66 66 65 65 64 63 62 62 61 59 58 58 58 57 57 56 56 55 54 54 54 54 54 55 56 57 57 57 57 57 57 56 56 54 53 51 50 49 48 47 46 44 43 41 40 39 37 36 35 34 33 32 31 30 29
75 74 74 74 74 75 74 73 73 74 74 73 73 72 72 72 72 71 71 71 71 70 70 69 69 68 67 67 67 67 67 66 66 65 65 65 64 64 63 63 62 61 60 60 59 59 59 59 58 56 56 56 56 56 56 57 58 58 58 58 57 56 56 54 53 51 50 49 48 47 45 44 43 41 40 39 37 36 35 34 33 32 32 30 29 28
75 74 74 74 74 74 73 72 73 73 73 73 73 72 72 72 72 71 70 70 70 70 70 70 70 69 69 69 69 68 68 67 66 66 66 65 65 65 64 64 64 63 63 63 63 62 62 62 62 61 59 60 59 59 58 59 59 59 58 57 57 56 54 53 52 50 48 47 46 45 43 42 40 39 38 37 35 35 34 33 32 31 30 29 28 27
74 74 73 73 73 72 71 72 72 72 72 72 72 72 71 71 71 70 69 69 69 69 69 69 69 69 69 69 69 70 70 69 68 67 67 66 66 66 66 65 65 65 65 66 66 66 65 65 65 65 63 63 62 61 59 59 60 59 58 57 56 54 53 52 51 49 46 45 44 43 41 39 38 37 36 35 34 33 32 31 30 29 28 27 26 25
74 73 72 72 71 70 70 70 70 71 71 72 71 71 70 71 70 70 68 68 68 68 68 67 67 67 68 68 69 70 70 69 68 68 67 67 67 67 66 66 65 65 66 66 67 66 66 66 66 65 64 63 62 61 60 59 59 58 57 55 54 52 51 50 49 47 45 43 42 41 39 37 36 35 34 33 32 31 30 29 28 27 26 25 24 24
71 71 70 70 69 69 69 69 69 69 70 70 70 69 69 69 69 69 68 67 67 67 67 66 66 66 66 67 68 69 69 68 67 67 66 66 65 64 64 64 63 63 63 63 63 63 63 63 63 62 61 60 59 58 57 56 56 55 54 52 51 49 48 47 45 44 42 41 40 38 37 36 34 33 32 31 30 29 28 27 26 25 24 24 23 22
68 68 68 67 67 67 67 67 67 68 68 68 68 68 68 68 67 67 67 67 67 66 66 66 65 65 64 64 65 66 66 65 65 64 63 62 61 60 60 59 59 59 58 58 58 58 58 57 57 56 56 55 54 53 52 51 50 49 48 47 46 44 43 42 41 39 38 37 36 35 34 33 32 30 29 29 28 27 26 25 24 23 22 21 21 20
66 66 65 65 65 65 65 65 65 65 65 65 65 65 65 65 64 64 64 64 64 64 63 63 63 62 61 61 61 61 60 60 60 59 57 56 55 55 54 54 53 53 52 51 51 51 50 50 49 49 48 47 46 46 46 44 43 42 41 41 39 38 37 36 36 35 34 33 32 31 31 29 28 27 27 26 25 24 24 23 22 21 20 19 18 18
62 62 61 61 61 61 61 61 61 61 61 61 61 60 59 59 58 58 58 58 58 57 57 57 56 56 55 55 54 54 53 52 52 51 50 49 48 47 46 46 45 45 45 44 44 43 43 42 41 41 40 39 38 38 37 37 35 35 34 33 33 32 31 31 30 29 28 27 27 26 26 25 24 23 23 22 22 21 20 20 19 18 18 17 16 16
55 55 55 55 55 55 55 54 54 54 54 54 54 53 52 51 51 50 50 49 49 48 48 48 47 46 46 46 46 45 44 43 43 43 41 40 39 39 38 38 37 37 36 36 36 35 35 35 34 33 32 31 30 29 29 29 28 27 27 26 26 25 25 24 24 24 23 22 22 21 21 20 20 19 19 18 18 18 17 17 16 16 15 15 14 14
49 49 49 48 48 48 48 48 47 47 47 46 46 45 44 43 42 42 41 40 40 39 39 38 38 37 37 37 37 36 35 35 35 34 33 33 32 31 30 30 29 29 28 28 28 27 27 27 27 26 26 24 23 22 22 22 21 21 20 20 19 19 18 18 18 18 18 17 17 17 16 16 16 15 15 14 14 14 14 14 14 13 13 13 13 12
44 44 43 43 42 42 42 41 40 40 40 39 38 38 37 36 35 34 34 33 32 32 32 31 31 30 30 30 29 29 28 28 27 27 26 26 25 24 23 23 22 22 21 21 21 21 20 20 20 20 20 19 18 17 16 16 16 16 15 15 15 15 14 14 14 14 14 14 14 13 13 13 13 13 12 12 12 12 12 12 12 12 11 11 11 11
Wind_Speed
55 55 54 54 54 54 54 53 53 53 53 52 52 52 52 52 52 52 52 52 52 52 52 52 52 52 52 52 51 51 51 51 51 51 51 51 51 51 51 51 51 51 50 50 50 50 49 49 49 49 48 48 48 48 48 48 48 48 48 48 48 48 48 48 49 49 49 49 49 49 50 50 50 50 50 50 50 50 49 49 49 48 48 47 47 47
57 57 56 56 56 56 56 55 54 54 54 54 54 53 53 53 53 53 53 53 53 53 53 53 53 53 53 53 53 52 52 52 52 52 52 52 52 52 52 52 52 52 52 51 51 51 51 50 50 50 50 49 49 49 49 49 49 48 49 49 49 49 49 49 49 49 49 49 49 50 50 50 50 50 50 50 50 50 50 50 49 49 49 48 48 47
59 59 58 58 58 57 57 57 56 56 55 55 55 55 55 55 55 55 55 55 55 55 55 55 55 54 54 54 54 54 54 54 54 54 53 53 53 53 53 53 53 53 53 53 52 52 52 52 51 51 51 51 50 50 50 50 50 49 49 49 49 49 49 49 49 49 49 50 50 50 50 50 50 51 51 51 51 51 51 50 50 50 50 49 49 48
61 61 61 60 60 59 59 59 58 58 57 57 57 56 56 56 56 56 56 56 56 56 56 56 56 56 56 56 55 55 55 55 55 55 55 54 55 54 54 54 54 54 54 54 54 53 53 53 53 52 52 52 52 52 51 51 51 51 50 50 50 50 50 50 50 50 50 50 50 50 50 50 50 51 51 51 51 51 51 51 51 51 50 50 50 49
63 62 62 62 61 61 61 61 60 60 59 59 59 58 58 58 58 57 57 57 57 57 58 58 57 57 57 57 57 57 56 56 56 56 56 56 56 56 55 55 55 55 55 55 55 54 54 54 54 54 53 53 53 53 53 52 52 52 52 51 51 51 51 51 51 51 51 51 51 51 51 51 51 51 51 51 51 52 52 52 52 51 51 51 50 50
65 64 64 64 63 63 63 63 62 62 61 61 60 60 60 59 59 59 59 59 59 59 59 59 59 59 59 59 59 58 58 58 58 57 57 57 57 57 57 56 56 56 56 56 56 56 56 55 55 55 55 55 54 54 54 54 54 53 53 53 52 52 52 52 52 51 51 51 51 51 51 51 51 51 51 51 52 52 52 52 52 52 52 52 51 51
67 66 66 65 65 65 65 64 64 64 63 63 62 62 61 61 61 61 61 61 60 60 60 60 60 60 60 60 60 60 60 59 59 59 59 58 58 58 58 57 57 57 57 57 57 57 57 57 56 56 56 56 56 56 55 55 55 55 54 54 54 53 53 53 53 52 52 52 52 52 52 52 52 52 52 52 52 52 52 52 52 52 52 52 52 52
68 68 68 67 67 67 67 66 66 65 65 64 64 64 63 63 63 62 62 62 62 62 62 62 62 62 62 62 61 61 61 61 61 60 60 60 59 59 59 58 58 58 58 58 58 58 58 58 58 58 57 57 57 57 57 56 56 56 56 56 55 55 55 54 54 54 54 53 53 53 53 53 52 52 52 52 52 52 52 52 52 52 53 53 53 53
70 70 70 69 69 68 68 68 68 67 66 66 66 65 65 65 64 64 64 64 64 64 63 63 63 64 63 63 63 63 63 62 62 62 61 61 60 60 60 59 59 59 59 59 59 59 59 59 59 59 59 59 58 58 58 58 57 57 57 57 57 56 56 56 55 55 55 55 54 54 54 54 53 53 53 53 53 53 53 53 53 53 53 53 53 53
72 72 71 71 71 70 70 70 69 69 68 67 67 67 67 66 66 66 65 65 66 66 65 65 65 65 65 65 64 64 64 64 63 63 63 62 62 61 61 61 60 60 60 60 60 60 60 60 60 60 60 60 60 59 59 59 59 59 58 58 58 58 58 57 57 57 56 56 56 55 55 55 55 54 54 54 54 53 53 53 53 53 53 53 53 53
74 74 73 73 73 72 71 71 71 70 69 69 69 69 68 68 67 67 67 67 67 67 67 67 67 67 67 66 66 66 65 65 65 65 64 64 63 63 62 62 62 61 61 61 61 61 61 61 61 61 61 61 61 61 61 60 60 60 60 60 60 59 59 59 58 58 58 57 57 57 57 56 56 56 55 55 55 54 54 54 54 54 54 54 54 54
76 75 75 75 74 74 73 73 72 72 71 70 70 70 70 70 69 69 69 69 69 69 68 68 68 68 68 68 68 67 67 66 66 66 66 65 65 65 64 64 63 63 62 62 62 62 62 62 62 62 62 62 62 62 62 62 61 61 61 61 61 61 61 60 60 60 59 59 59 58 58 58 57 57 57 56 56 56 55 55 55 55 55 55 54 54
77 77 77 76 76 75 74 74 73 73 72 72 71 71 71 71 71 70 70 70 70 70 69 69 69 70 69 69 69 68 68 68 68 67 67 67 66 66 65 65 65 64 64 64 63 63 63 63 63 63 63 63 63 63 63 63 63 63 62 62 62 62 62 62 62 61 61 60 60 60 59 59 59 58 58 58 57 57 57 57 56 56 56 56 56 55
79 78 78 77 77 77 76 75 74 74 74 73 73 73 73 72 72 72 72 72 72 71 71 70 70 71 71 70 70 70 69 69 69 69 69 68 68 67 67 67 67 66 66 65 65 65 65 64 64 64 65 64 64 64 64 64 64 64 64 64 63 63 63 63 63 62 62 62 62 61 61 60 60 60 59 59 59 59 58 58 58 57 57 57 57 57
80 79 79 79 78 78 77 76 76 75 75 75 74 74 74 74 73 73 73 73 73 73 72 71 72 72 72 71 71 70 70 70 70 70 70 70 70 69 68 68 68 68 67 67 67 67 66 66 66 66 66 65 65 65 65 65 65 65 65 65 64 64 64 64 64 64 63 63 63 62 62 62 61 61 61 60 60 60 60 59 59 59 59 58 58 58
81 80 80 80 79 79 78 77 77 76 76 76 76 75 75 75 75 74 74 73 74 73 72 72 72 72 73 73 72 71 71 71 71 71 71 71 71 71 70 69 69 69 69 68 68 68 68 67 67 67 67 67 67 67 67 67 66 66 66 66 66 65 65 65 65 65 64 64 64 64 63 63 63 62 62 62 62 61 61 61 60 60 60 60 59 59
81 81 81 80 80 79 79 78 78 78 78 77 77 77 76 76 76 75 75 74 74 74 73 73 73 72 73 73 73 72 71 71 72 72 72 72 72 72 71 70 70 71 70 70 69 69 69 69 68 68 68 68 68 68 68 68 68 67 67 67 67 66 66 66 66 66 66 65 65 65 64 64 64 63 63 63 63 63 62 62 62 61 61 61 61 61
82 81 81 81 81 80 80 79 79 79 79 79 78 78 78 78 77 76 76 75 75 74 74 74 73 73 73 73 74 74 72 72 72 73 73 73 73 73 72 71 72 72 72 71 71 71 70 70 70 70 69 69 69 69 69 69 69 69 68 68 68 68 68 67 67 67 67 67 66 66 66 65 65 65 64 64 64 64 63 63 63 63 63 62 62 62
83 82 82 81 81 81 81 81 80 80 80 80 80 79 79 79 78 77 77 76 75 75 74 74 74 74 74 74 74 74 73 72 73 73 74 74 74 74 73 72 72 73 73 72 72 72 71 71 71 71 71 70 70 70 70 70 70 70 70 69 69 69 69 69 68 68 68 68 67 67 67 66 66 66 65 65 65 65 64 64 64 64 64 63 63 63
83 83 83 83 83 82 82 82 82 82 81 81 81 80 80 80 79 78 77 77 76 76 75 74 74 74 75 75 75 75 74 73 73 74 74 74 74 74 74 73 73 74 74 74 73 73 72 72 72 72 72 71 71 71 71 71 71 71 71 70 70 70 70 70 70 69 69 69 69 68 68 68 67 67 67 66 66 65 65 65 65 65 65 65 64 64
84 84 84 84 83 83 83 84 83 83 82 82 82 81 81 80 80 79 78 78 77 76 76 75 75 75 75 75 75 75 74 73 73 74 75 75 75 75 75 74 74 74 74 74 74 74 73 73 73 73 73 72 72 72 72 72 72 71 71 71 71 71 71 71 71 70 70 70 70 69 69 69 69 68 68 67 67 67 66 66 66 66 65 65 65 65
85 85 86 85 85 84 85 85 84 84 83 83 82 82 81 81 80 79 79 78 77 77 77 76 77 77 76 76 76 76 75 74 74 75 75 75 75 76 76 75 74 75 75 75 75 75 74 74 74 74 74 73 73 73 73 73 72 72 72 72 72 72 72 72 72 72 71 71 71 71 70 70 70 69 69 69 68 68 67 67 67 66 66 66 66 66
86 86 86 86 85 85 85 85 85 84 84 83 82 82 82 81 80 80 79 79 78 78 78 78 78 77 77 77 77 76 76 75 75 75 75 75 76 77 76 75 75 75 76 76 76 75 75 75 75 75 74 74 74 74 74 73 73 73 73 73 73 73 73 73 73 73 72 72 72 72 71 71 71 70 70 70 69 69 69 68 68 67 67 67 66 66
87 87 87 86 86 86 85 85 84 84 83 83 82 82 81 81 80 80 79 79 79 78 79 79 78 78 78 78 78 77 77 77 76 76 76 76 77 77 77 76 75 76 76 76 76 75 75 76 76 76 75 75 75 74 74 74 74 74 74 74 74 74 74 74 73 73 73 73 73 73 72 72 72 71 71 71 70 70 70 69 69 69 68 68 67 67
87 87 87 86 86 85 85 84 84 83 83 82 82 81 81 80 80 79 79 79 79 79 79 79 79 79 80 79 79 78 78 78 77 77 77 78 78 78 77 77 76 76 77 77 76 76 76 76 76 76 76 75 75 75 75 75 75 75 75 75 75 74 74 74 74 74 74 74 74 74 73 73 73 72 72 72 71 71 71 70 70 70 69 69 68 68
87 87 86 86 86 85 85 84 84 84 83 82 82 82 81 81 80 80 80 81 81 81 80 80 81 81 81 80 80 80 80 80 79 78 78 78 78 78 78 78 77 76 77 77 77 76 76 76 77 77 76 76 76 76 75 75 75 75 75 75 75 75 75 75 75 75 75 75 74 74 74 74 74 73 73 73 72 72 72 71 71 71 70 70 70 69
86 86 86 86 86 85 85 85 84 84 83 83 83 83 82 82 82 82 82 83 82 82 82 82 82 82 82 82 81 82 81 81 80 80 80 79 79 79 79 79 77 76 77 77 77 76 76 76 76 77 76 76 76 76 76 75 76 76 76 75 75 75 75 75 75 75 75 75 75 75 75 75 75 74 74 74 73 73 72 72 72 71 71 71 70 70
86 86 86 86 86 86 85 85 85 84 84 84 84 84 83 83 83 83 84 84 83 83 82 83 83 83 83 83 83 83 82 82 81 81 81 80 80 80 80 79 78 77 77 77 77 76 76 76 76 77 76 76 76 76 76 76 76 76 76 76 76 76 76 76 76 76 76 76 75 75 75 75 75 75 75 75 74 74 74 73 73 72 72 71 71 71
86 86 86 86 86 86 86 86 86 86 85 85 85 85 85 85 84 85 85 85 84 83 84 84 84 84 84 84 84 84 83 83 83 83 82 81 80 81 82 80 79 78 78 77 77 77 76 76 76 76 76 76 76 76 76 76 76 76 76 76 76 76 76 76 76 76 76 76 76 76 76 76 76 76 76 75 75 75 75 74 74 73 73 72 72 71
87 87 87 87 87 87 87 87 87 87 86 86 86 86 86 86 86 86 86 86 85 84 85 85 85 85 84 85 85 84 84 85 85 84 83 81 82 83 82 80 80 80 79 78 77 77 77 77 76 76 76 76 76 76 76 76 76 76 76 76 76 76 76 76 76 76 76 76 76 76 76 76 76 76 76 76 76 76 75 75 75 74 74 73 72 72
86 86 86 87 87 87 87 87 87 87 87 87 87 87 87 87 87 87 87 86 86 85 85 86 86 85 85 85 85 85 85 86 86 85 83 82 83 83 83 81 81 81 81 79 77 77 77 77 76 76 75 76 76 76 76 76 76 76 76 76 76 76 76 76 76 76 76 76 76 76 76 76 76 76 76 76 76 76 76 76 76 75 75 74 73 73
85 85 85 86 87 87 87 87 87 88 88 87 88 88 88 88 88 88 88 87 87 86 86 86 86 86 86 85 85 85 86 86 86 85 84 82 83 84 83 81 81 82 82 80 79 78 78 77 77 76 75 75 75 76 76 76 76 76 76 76 76 76 77 77 77 77 77 77 77 77 77 77 77 77 77 77 77 76 76 76 76 76 75 75 74 73
83 83 84 84 85 85 85 86 86 86 87 87 87 87 87 87 87 87 87 87 87 86 86 86 86 86 86 85 85 86 86 86 86 85 84 83 83 84 83 82 82 82 82 81 80 79 79 78 77 76 76 75 75 76 76 76 76 77 76 76 76 77 77 77 77 77 78 78 77 77 77 77 77 77 77 77 77 77 76 77 76 76 76 75 74 74
80 80 81 81 82 82 83 84 84 84 85 85 85 86 86 86 86 86 86 86 86 86 86 85 85 85 85 85 85 85 86 86 86 85 84 83 83 83 83 82 82 82 82 81 81 80 80 79 78 77 76 76 76 76 76 76 76 77 77 77 77 77 78 78 78 78 78 78 78 78 78 78 78 77 77 77 77 77 76 76 76 76 76 75 74 74
77 77 78 78 79 79 80 81 81 82 82 83 83 83 84 84 84 84 84 84 85 85 85 85 84 84 84 84 84 84 85 86 86 85 84 83 83 83 83 82 82 82 81 81 81 80 80 79 79 78 77 77 77 77 77 76 76 77 77 77 77 78 78 78 78 78 79 79 79 78 79 78 78 78 78 77 77 77 76 76 76 76 75 75 74 74
74 75 76 76 76 77 77 78 79 79 80 80 81 81 82 82 82 83 83 83 83 83 83 84 84 84 84 83 83 84 84 85 85 84 83 83 83 83 82 82 82 82 81 81 81 81 80 80 80 79 79 78 78 78 78 78 77 77 77 78 78 78 78 79 79 79 79 79 79 79 79 79 78 78 78 78 77 77 76 76 76 75 75 75 75 74
72 73 74 74 74 75 75 76 77 77 78 78 79 79 80 80 81 81 82 82 82 82 82 83 83 83 83 83 83 84 84 85 85 84 83 83 83 83 82 83 83 82 81 81 81 81 81 80 80 80 80 79 79 79 79 79 79 78 78 79 79 79 79 80 80 80 79 79 80 80 79 79 78 78 78 78 77 77 76 76 76 75 75 75 75 74
72 72 73 73 73 74 74 75 76 76 76 77 77 78 78 79 79 80 80 81 81 81 82 82 82 82 82 83 83 83 84 84 84 84 84 84 83 83 83 83 83 83 82 82 82 82 81 81 81 81 81 81 81 81 81 80 80 80 80 80 80 79 80 80 81 80 80 80 80 80 79 79 79 78 78 78 78 77 76 76 76 76 75 75 75 75
71 72 72 73 73 73 73 74 75 75 76 76 76 77 77 78 78 78 79 79 80 80 80 81 81 81 82 82 82 83 83 83 83 84 83 83 83 83 83 83 83 84 84 83 83 82 82 82 82 82 82 82 82 82 82 82 81 81 82 81 81 81 81 81 81 81 81 81 80 80 80 80 79 79 78 78 78 77 77 77 77 76 76 75 75 76
71 72 72 72 73 73 73 73 74 75 75 75 75 76 76 77 77 78 78 78 78 79 79 80 80 80 81 81 82 82 83 83 83 83 83 83 83 83 83 83 83 84 84 84 83 83 83 83 83 84 83 83 83 83 83 82 82 82 82 81 81 82 82 81 81 81 81 81 81 80 80 80 80 79 79 79 78 78 77 77 77 77 77 76 76 76
71 71 72 72 73 73 73 73 74 74 74 74 75 75 75 76 76 76 77 77 77 78 78 79 79 79 80 80 81 81 82 82 82 82 83 83 83 83 83 83 83 83 83 83 83 83 83 83 83 84 84 84 83 83 83 83 83 83 82 82 82 83 82 81 81 81 81 81 81 81 80 80 80 80 79 79 79 79 79 78 78 78 78 78 78 78
70 71 72 72 72 72 72 73 73 73 73 74 74 74 75 75 75 75 75 76 76 77 77 77 77 77 78 79 80 81 81 81 81 82 82 82 82 82 82 83 83 83 83 82 83 83 83 83 83 83 83 84 83 82 82 83 83 83 82 82 83 83 82 82 81 81 81 81 81 81 81 80 80 80 80 80 80 80 80 80 80 80 80 80 80 80
70 71 71 72 72 72 72 72 72 72 73 73 73 74 75 75 75 75 75 75 76 76 76 76 76 76 76 77 78 79 80 80 80 80 81 81 81 81 82 82 82 82 82 81 81 82 83 82 81 82 83 83 82 81 81 82 83 82 82 82 82 82 81 82 82 82 81 81 82 82 82 81 81 81 81 81 81 82 82 82 82 82 83 83 83 83
70 70 71 71 71 71 71 71 71 72 72 72 72 73 74 74 74 74 74 75 76 76 76 76 76 76 75 76 77 78 78 79 79 79 79 80 80 80 80 80 80 80 80 79 79 80 81 80 80 81 81 81 81 80 81 81 82 82 82 82 82 81 81 82 83 83 82 83 83 84 84 83 83 83 83 83 84 84 84 84 85 85 85 85 85 86
69 70 70 70 70 70 70 70 71 71 71 71 71 72 73 73 73 73 73 74 74 75 75 75 75 74 74 75 76 76 76 77 77 78 78 78 78 78 78 78 78 78 78 78 78 78 78 79 79 80 80 80 80 80 80 81 81 82 82 82 82 82 83 84 84 84 84 85 85 86 86 86 86 86 86 86 87 87 87 87 87 88 88 88 89 89
69 70 70 70 69 69 69 70 70 70 69 70 71 71 71 71 71 71 72 72 72 73 73 74 73 72 73 74 74 74 74 75 76 76 76 76 77 77 77 77 77 77 77 77 78 78 78 78 79 79 80 80 80 81 81 82 82 82 83 83 84 84 84 85 86 86 87 87 88 89 89 89 89 89 89 90 90 90 90 90 90 91 91 91 91 91
68 69 69 69 69 69 69 69 69 69 69 69 70 70 70 70 70 70 71 71 71 71 72 72 71 71 71 72 73 73 73 73 74 75 76 76 76 77 77 77 78 78 78 78 78 78 79 79 80 80 80 81 81 82 83 83 84 84 85 86 86 86 87 88 89 89 90 90 91 92 92 92 92 92 93 93 93 93 93 93 93 93 94 94 94 94
68 68 68 68 68 68 69 69 69 68 69 69 70 70 70 69 69 70 70 71 71 71 71 71 71 71 72 72 73 73 73 74 75 75 76 77 78 78 78 79 79 79 80 80 80 80 81 81 81 82 82 83 83 84 85 86 86 87 88 88 89 89 90 91 92 92 93 93 94 95 95 95 96 96 97 97 96 96 96 96 96 97 97 97 97 97
67 68 68 68 68 69 69 69 69 69 69 70 70 70 70 70 70 70 71 71 72 72 72 72 73 73 73 73 74 75 75 75 76 77 78 79 79 80 80 81 81 81 82 82 82 83 83 83 84 84 85 85 86 87 88 89 89 89 90 91 91 92 93 93 94 95 95 96 97 98 98 98 99 99 100 99 100 100 100 99 99 99 100 100 100 99
68 68 69 69 69 70 70 71 71 71 71 71 71 71 72 72 72 72 73 73 73 74 74 74 75 75 75 76 76 77 77 77 78 79 80 80 81 81 82 83 83 83 84 84 84 85 85 85 86 87 87 88 88 89 89 90 91 92 92 92 93 94 94 95 96 96 97 97 98 99 99 100 100 101 101 101 101 102 102 102 101 101 102 102 102 101
70 70 70 70 71 71 72 72 72 72 72 73 73 73 73 74 74 74 75 75 75 76 76 77 77 77 77 78 78 78 79 79 80 80 81 82 82 82 83 84 84 84 85 85 86 86 86 86 86 87 88 89 90 89 89 90 91 91 91 92 93 93 93 94 95 96 96 96 97 97 98 98 99 100 100 100 101 101 101 101 101 101 101 101 101 101
Wind_Direction
268 268 269 269 269 269 269 269 270 270 271 271 272 272 273 273 273 273 273 273 274 274 273 273 273 273 274 274 274 274 274 274 274 274 274 275 275 275 275 275 275 275 276 276 276 276 276 276 276 276 276 276 276 277 277 277 277 277 277 277 277 277 277 277 277 277 277 277 278 278 278 278 278 278 278 278 278 277 277 277 277 277 277 277 277 277
268 268 269 269 269 269 269 269 270 270 270 271 271 272 272 273 273 273 273 273 273 273 274 273 273 273 273 273 274 274 274 274 274 274 274 274 274 274 275 275 275 275 276 276 276 276 276 276 277 277 277 277 277 277 277 277 277 277 277 277 277 277 277 277 277 277 277 277 277 277 278 278 278 278 278 278 278 277 277 277 277 277 277 277 277 277
268 268 269 269 269 269 269 269 269 270 270 271 271 271 272 272 273 273 273 273 273 273 274 274 273 273 273 273 273 273 273 274 274 274 274 274 274 274 274 274 274 275 275 275 276 276 276 276 276 277 277 277 277 277 277 277 277 277 277 277 277 277 277 277 277 277 277 277 277 277 277 277 277 277 277 277 277 277 277 277 277 277 277 277 277 277
268 269 269 269 269 269 269 270 270 270 270 270 271 271 272 272 273 273 273 274 274 274 274 273 273 273 273 273 273 273 273 273 273 273 273 273 273 273 274 274 274 274 275 275 275 275 276 276 276 276 276 277 277 277 276 276 276 276 276 276 276 277 277 277 277 277 277 277 277 277 277 277 277 277 277 277 277 277 277 277 277 277 277 276 276 276
268 268 269 269 269 269 269 270 270 270 270 270 271 271 272 272 273 273 273 274 274 274 274 274 274 273 273 273 273 273 273 273 273 273 273 273 273 273 273 273 273 274 274 274 274 275 275 275 275 276 276 276 276 276 276 276 276 276 276 276 276 276 276 276 276 276 276 276 277 277 277 277 277 277 277 277 277 277 277 277 277 276 276 276 276 275
268 268 269 269 270 270 270 270 270 270 270 270 271 271 272 272 273 273 274 274 274 274 274 274 274 273 273 273 273 272 272 272 272 272 272 272 273 273 273 273 273 273 273 274 274 274 274 274 275 275 275 275 276 276 276 276 276 276 276 276 276 276 276 276 276 276 276 276 276 276 276 276 276 276 276 276 276 276 276 276 276 276 276 276 275 275
268 268 269 269 269 270 270 270 270 270 271 271 271 272 272 273 273 274 274 274 274 274 274 274 274 273 273 273 272 272 272 272 272 272 272 272 272 273 273 273 273 273 273 273 274 274 274 274 274 274 274 275 275 275 275 276 276 276 276 276 276 276 275 275 275 275 275 275 276 276 276 276 276 275 275 275 275 275 275 275 275 275 275 275 275 274
268 268 269 269 269 270 270 270 270 271 271 271 272 272 272 273 273 274 274 275 275 275 274 274 274 273 273 273 272 272 272 272 272 272 272 272 272 272 272 273 273 273 273 273 273 273 274 274 274 274 274 274 274 274 275 275 275 275 275 275 275 275 275 275 275 275 275 275 275 275 275 275 275 275 275 275 275 275 275 275 275 275 275 274 274 274
268 268 269 269 269 270 270 270 270 271 271 272 272 273 273 273 274 274 274 275 275 275 274 274 274 273 273 272 272 272 272 272 272 272 272 272 272 272 272 272 273 273 273 273 273 273 274 274 274 274 274 274 274 274 274 274 275 275 275 275 275 275 275 275 275 275 275 275 275 275 275 275 275 275 275 274 274 274 274 274 274 274 274 274 273 273
268 268 269 269 269 270 270 270 271 271 272 272 272 273 273 274 274 274 274 274 274 274 274 274 274 273 273 272 272 272 272 272 272 271 271 271 272 272 272 272 272 273 273 273 273 273 274 274 274 274 274 274 274 274 274 274 274 274 274 275 275 275 275 275 275 275 274 274 274 274 274 274 274 275 275 275 274 274 274 274 273 273 273 273 273 272
268 268 269 269 269 270 270 271 271 271 272 272 273 273 273 274 274 274 274 274 274 274 274 274 273 273 273 272 272 272 272 271 271 271 271 271 272 272 272 272 272 273 273 273 273 273 274 274 274 274 274 274 274 274 274 274 274 274 274 274 274 275 275 275 274 274 274 274 274 274 274 274 274 274 275 275 274 274 274 274 274 273 273 272 272 272
267 268 269 269 270 270 270 271 271 272 272 272 273 273 273 274 274 274 274 274 274 274 273 273 273 273 272 272 272 271 271 271 271 271 271 271 271 271 272 272 272 273 273 273 273 274 274 274 274 274 274 274 274 274 274 274 274 274 274 274 274 274 274 274 275 274 274 274 274 274 274 274 274 274 275 275 275 275 275 274 274 274 273 273 272 272
267 268 269 269 270 270 271 271 271 272 272 272 273 273 273 274 274 274 274 274 273 273 273 273 272 272 271 271 271 271 271 271 271 271 271 271 271 271 271 272 272 272 273 273 274 274 274 274 274 274 274 274 274 274 274 274 274 274 274 274 275 275 275 275 275 275 275 275 275 275 274 274 274 274 275 275 275 275 275 275 275 274 274 273 273 272
267 268 269 269 270 270 270 271 271 271 272 272 272 273 273 273 274 274 273 273 273 273 272 272 272 271 271 270 270 270 270 270 270 270 270 270 270 271 271 272 272 272 273 273 274 274 274 274 275 275 275 275 275 275 275 275 275 275 275 275 275 275 275 275 275 275 275 275 275 275 275 275 275 275 275 275 275 275 275 275 275 275 274 274 274 273
267 268 268 269 269 270 270 270 271 271 271 272 272 272 273 273 273 273 273 273 273 272 272 272 271 271 270 270 270 269 270 270 270 270 270 270 270 270 271 272 272 272 273 273 274 274 274 275 275 275 275 275 275 275 275 275 275 275 275 275 275 275 275 275 276 276 276 276 276 275 275 275 275 275 275 275 275 275 275 275 275 275 275 274 274 274
267 267 268 268 269 269 269 270 270 270 271 271 271 272 272 272 272 272 272 272 272 272 271 271 270 270 270 269 269 269 269 269 270 270 270 270 270 270 271 271 272 272 273 273 274 274 274 275 275 275 275 275 275 275 275 275 275 275 275 276 276 276 276 276 276 276 276 276 276 276 276 276 276 276 275 275 275 275 275 275 275 275 275 274 274 274
266 266 267 267 268 268 269 269 269 270 270 270 271 271 271 271 271 271 271 271 271 271 271 270 270 269 269 269 269 268 268 269 269 270 270 270 270 270 270 271 271 272 272 273 273 274 274 275 275 275 275 275 276 276 276 276 276 276 276 276 276 276 276 276 277 277 277 277 277 277 277 277 276 276 276 276 276 275 275 275 275 275 274 274 274 274
265 265 266 266 267 267 268 268 268 269 269 269 270 270 270 270 270 270 270 270 270 270 270 269 269 269 268 268 268 268 268 268 269 269 270 270 270 270 270 270 271 271 272 272 273 273 274 274 275 275 275 275 275 276 276 276 276 276 276 276 276 277 277 277 277 277 277 277 277 277 277 277 277 277 277 276 276 276 276 276 275 275 275 274 274 274
264 265 265 265 266 266 267 267 268 268 268 268 269 269 269 269 269 269 269 269 269 269 269 269 268 268 268 268 268 268 268 268 268 269 269 270 270 269 269 270 270 271 271 272 272 273 273 274 274 275 275 275 275 276 276 276 276 276 276 276 277 277 277 277 278 278 278 278 278 278 278 278 278 278 277 277 277 277 276 276 276 276 275 275 275 274
263 264 264 265 265 266 266 266 267 267 267 268 268 268 268 268 268 268 268 268 268 268 268 268 268 268 268 268 268 268 268 268 268 268 269 269 269 269 269 270 270 271 271 272 272 272 273 273 274 274 275 275 275 275 276 276 276 276 276 276 277 277 277 278 278 278 278 278 279 279 279 279 279 278 278 278 278 277 277 277 276 276 276 276 275 275
263 263 264 264 264 265 265 266 266 266 267 267 267 267 267 268 268 268 268 268 268 268 268 268 267 267 268 268 268 268 267 268 268 268 269 269 269 269 269 270 270 271 271 271 272 272 273 273 274 274 274 275 275 275 275 276 276 276 276 276 277 277 277 278 278 278 279 279 279 279 279 279 279 279 279 279 278 278 278 277 277 277 276 276 276 276
262 263 263 264 264 264 265 265 266 266 266 266 266 267 267 267 267 267 267 267 267 267 267 267 267 267 267 268 268 267 268 268 268 268 269 269 269 269 269 270 270 271 271 271 272 272 273 273 273 274 274 274 274 275 275 275 275 276 276 276 277 277 277 278 278 278 279 279 279 279 279 279 279 279 279 279 279 279 278 278 278 277 277 276 276 276
262 262 263 263 263 264 264 265 265 265 265 265 265 266 266 266 266 266 266 266 266 266 267 267 267 267 267 267 267 267 268 268 268 268 269 269 270 270 270 270 270 271 271 271 272 272 273 273 273 273 274 274 274 274 274 275 275 275 276 276 276 277 277 278 278 278 278 279 279 279 279 279 279 279 279 279 279 279 279 279 278 278 277 277 277 276
261 262 262 262 263 263 263 264 264 264 264 264 264 265 265 265 265 265 266 266 266 266 266 266 267 267 267 267 267 268 268 268 268 269 269 269 270 270 270 270 271 271 271 271 272 272 273 273 273 273 273 273 274 274 274 274 275 275 275 276 276 277 277 277 278 278 278 278 279 279 279 279 279 279 279 279 279 279 279 279 278 278 278 277 277 277
261 261 261 262 262 262 263 263 263 263 264 264 264 264 264 264 264 265 265 265 265 266 266 267 267 267 267 267 268 268 268 268 269 269 269 269 270 270 270 270 271 271 271 271 272 272 272 273 273 273 273 273 273 274 274 274 274 275 275 275 276 276 277 277 277 278 278 278 278 278 278 278 278 278 278 279 278 278 278 278 278 278 278 278 278 277
260 260 261 261 262 262 262 262 263 263 263 263 264 264 264 264 264 265 265 266 266 266 267 267 267 268 268 268 268 268 268 268 269 269 269 269 270 270 270 270 270 271 271 271 272 272 272 273 273 273 273 273 273 274 274 274 274 275 275 275 276 276 276 277 277 277 277 278 278 278 278 278 278 278 278 278 278 278 278 278 278 278 278 278 278 278
259 260 260 260 261 261 262 262 262 263 263 263 263 264 264 264 265 265 265 266 266 266 267 267 268 268 268 268 268 268 268 269 269 269 269 269 270 270 270 270 270 271 271 271 272 272 272 273 273 273 273 273 274 274 274 274 274 274 275 275 275 276 276 276 276 277 277 277 277 277 277 277 277 277 277 277 277 277 277 277 277 277 277 277 277 277
258 258 259 259 260 260 261 261 262 262 262 263 263 264 264 264 264 265 265 265 266 266 267 267 267 268 268 269 269 268 269 269 269 269 269 269 270 270 270 270 271 271 271 271 271 272 272 272 273 273 273 273 274 274 274 274 274 274 274 275 275 275 275 276 276 276 276 276 276 277 277 277 277 277 277 277 277 277 277 277 277 277 277 277 277 277
257 257 258 258 259 259 260 260 261 261 262 262 263 263 263 264 264 264 265 265 266 266 266 267 267 268 268 268 268 269 269 269 269 269 269 269 270 270 270 270 271 271 271 271 271 272 272 272 272 273 273 273 274 274 274 274 274 274 274 274 275 275 275 275 275 275 275 275 276 276 276 276 276 276 276 276 276 276 276 276 276 276 276 276 276 276
256 256 257 257 258 258 259 259 260 260 261 262 262 263 263 263 264 264 264 265 265 266 266 266 267 267 267 268 268 268 269 269 269 269 269 269 270 270 270 271 271 271 271 271 271 272 272 272 272 273 273 273 274 274 274 274 274 274 274 274 274 274 274 274 274 274 275 275 275 275 275 275 275 275 275 275 275 275 276 276 276 276 276 276 276 276
256 256 256 257 257 258 258 259 259 260 260 261 261 262 263 263 263 264 264 265 265 265 265 266 266 267 267 267 267 268 268 268 268 269 269 269 270 270 270 271 271 271 271 271 271 271 272 272 272 273 273 273 273 273 273 273 273 274 274 274 274 274 274 274 274 274 274 274 274 274 274 274 274 274 274 274 275 275 275 275 275 275 275 275 275 275
255 255 256 256 257 257 258 258 259 259 260 260 261 261 262 262 263 263 264 264 264 265 265 265 266 266 266 266 267 267 267 268 268 268 269 269 269 270 270 270 271 271 271 271 271 271 271 272 272 272 272 272 273 273 273 273 273 273 273 273 273 273 273 273 273 273 273 273 273 273 273 273 273 273 273 273 274 274 274 274 274 274 274 274 274 274
255 255 256 256 256 257 257 258 258 259 259 260 260 261 261 262 262 263 263 263 264 264 264 265 265 265 266 266 266 267 267 267 268 268 268 269 269 269 270 270 270 271 271 271 271 271 271 271 271 271 272 272 272 272 272 272 272 272 272 272 272 273 273 272 272 272 272 272 272 272 272 272 272 272 272 272 272 273 273 273 273 273 273 273 273 273
255 255 255 256 256 256 257 257 258 258 259 259 259 260 260 261 261 262 262 263 263 264 264 264 264 265 265 265 266 266 267 267 267 268 268 268 269 269 269 270 270 270 271 271 271 271 271 271 271 271 271 271 271 271 271 271 271 272 272 271 272 272 272 272 271 271 271 271 271 271 271 271 271 271 271 271 271 271 272 272 272 272 272 272 272 272
255 255 255 256 256 256 257 257 257 258 258 259 259 259 260 260 261 261 262 262 263 263 263 264 264 264 265 265 266 266 266 267 267 268 268 268 268 269 269 270 270 270 270 271 271 271 271 271 271 271 271 271 271 271 270 270 270 270 271 271 271 271 271 271 270 270 270 270 270 270 270 270 270 270 270 270 270 270 270 270 270 271 271 271 271 271
255 255 256 256 256 256 257 257 257 258 258 258 259 259 260 260 260 261 261 262 262 263 263 264 264 264 265 265 265 266 266 267 267 268 268 268 268 268 269 269 270 270 270 270 271 271 271 271 271 271 271 271 271 271 270 270 270 270 270 270 270 269 269 269 269 269 269 269 269 269 269 269 269 269 270 269 269 269 269 269 269 269 269 270 270 270
256 256 256 256 256 257 257 257 258 258 258 259 259 259 260 260 260 261 261 262 262 263 263 263 264 264 265 265 266 266 266 267 267 268 268 268 268 268 269 269 269 270 270 270 270 271 271 271 271 271 271 271 270 270 270 270 269 269 269 269 268 268 268 269 268 268 268 268 269 269 268 268 269 269 269 269 269 268 268 268 268 269 269 269 269 270
256 257 257 257 257 257 257 258 258 258 259 259 259 260 260 260 261 261 261 262 262 262 263 263 264 264 265 265 265 266 266 267 267 268 268 268 268 268 268 269 269 269 270 269 270 270 270 270 270 270 270 270 270 270 270 269 269 269 268 268 268 268 268 268 268 267 267 267 268 268 268 268 268 268 268 268 268 268 268 268 268 268 268 269 269 269
257 257 257 258 258 258 258 258 259 259 259 259 260 260 260 260 261 261 261 262 262 262 263 263 263 264 264 265 265 265 266 266 267 267 267 268 268 268 268 268 269 269 269 269 269 270 270 270 270 269 269 269 269 269 269 269 268 268 268 268 267 267 267 267 267 267 267 267 267 267 267 267 267 267 267 267 267 267 267 267 267 268 268 268 269 269
257 258 258 258 258 258 258 259 259 259 260 260 260 260 261 261 261 261 261 262 262 262 262 263 263 263 264 264 264 265 265 265 266 266 266 267 267 267 268 268 268 268 269 269 269 269 269 269 269 269 269 268 268 268 268 268 267 267 267 266 266 266 266 265 265 266 266 266 266 266 266 266 266 266 266 266 266 267 267 267 267 268 268 268 269 269
257 257 258 258 258 258 259 259 259 259 260 260 260 260 261 261 261 261 261 262 262 262 262 262 263 263 263 264 264 264 264 265 265 265 265 266 266 266 267 267 267 267 267 268 268 268 268 267 267 267 267 267 267 267 267 266 266 266 265 265 265 265 265 265 265 265 265 265 265 265 265 265 266 266 266 266 266 267 267 267 268 268 269 269 269 270
256 257 257 257 258 258 258 259 259 259 260 260 260 260 261 261 261 261 261 262 262 262 262 262 262 263 263 263 264 264 264 264 264 264 265 265 265 265 265 266 266 266 266 266 266 266 266 266 266 266 266 266 266 265 265 265 265 265 264 264 264 264 264 264 264 264 264 265 265 265 265 266 266 266 266 267 267 267 268 268 269 269 270 270 270 271
256 256 256 257 257 257 258 258 259 259 259 260 260 260 261 261 261 261 261 261 262 262 262 262 262 262 262 263 263 263 263 263 264 264 264 264 264 264 264 264 265 265 265 265 265 265 265 265 265 265 265 265 265 265 264 264 264 264 264 264 264 264 264 264 264 264 264 265 265 266 266 266 267 267 267 268 268 269 269 270 270 270 271 271 271 272
255 255 256 256 256 257 257 258 258 258 259 259 259 260 260 260 261 261 261 261 262 262 262 262 262 262 262 263 263 263 263 263 263 264 263 264 264 264 264 264 264 264 264 264 264 264 265 265 265 265 265 265 265 265 265 264 264 264 264 265 265 265 265 265 265 265 265 266 266 267 267 268 268 268 269 269 270 270 271 271 271 272 272 272 272 273
255 255 255 256 256 257 257 257 258 258 258 259 259 260 260 260 260 261 261 261 262 262 262 262 262 262 262 262 263 263 264 264 264 264 264 264 264 264 264 264 264 264 264 264 264 264 265 265 265 265 265 266 266 266 266 266 266 266 266 266 266 266 266 266 266 267 267 267 268 268 269 269 269 270 270 270 271 271 271 272 272 273 273 273 273 273
255 255 255 256 256 256 257 257 258 258 258 259 259 259 260 260 260 261 261 261 262 262 262 262 262 263 263 263 263 264 264 265 265 265 265 265 265 265 265 265 265 265 265 265 265 265 266 266 266 266 267 267 267 267 267 267 267 268 268 268 268 268 268 268 268 269 269 269 269 270 270 270 271 271 271 271 271 272 272 272 273 273 273 273 273 273
256 256 256 257 257 257 257 258 258 258 259 259 259 259 260 260 261 261 261 262 262 262 263 263 263 263 263 263 264 265 265 266 266 267 267 267 267 267 267 267 267 267 267 267 267 267 267 267 268 268 268 269 269 269 269 269 269 270 270 270 270 270 270 270 270 271 271 271 271 271 271 272 272 272 272 272 272 272 272 273 273 273 273 273 273 273
257 257 258 258 258 258 259 259 259 259 259 260 260 260 261 261 261 262 262 263 263 263 264 264 264 265 265 265 265 266 266 267 267 268 268 269 269 269 269 270 270 269 269 269 269 269 269 269 270 270 270 270 271 271 271 271 271 271 271 271 272 272 272 272 272 272 272 272 272 272 273 273 273 273 272 272 272 272 272 273 273 273 273 273 273 273
258 259 260 260 260 260 260 260 261 261 261 261 262 262 262 263 263 263 264 264 264 265 265 265 266 266 266 266 267 267 267 268 268 269 269 270 270 271 271 271 271 271 271 271 271 271 271 271 271 271 272 272 272 272 272 272 272 273 273 273 273 273 273 273 273 273 273 273 273 273 273 274 273 273 273 273 273 273 273 273 273 273 273 273 273 272
260 261 261 262 262 262 262 262 263 263 263 263 264 264 264 265 265 265 266 266 266 267 267 267 267 267 268 268 268 268 269 269 269 270 270 270 271 271 272 272 272 272 272 272 272 272 272 272 272 272 272 273 273 273 273 273 273 273 274 274 274 274 274 274 274 274 274 274 274 274 274 274 274 274 274 274 273 273 273 273 273 273 273 273 273 272
262 262 263 263 264 264 264 264 265 265 265 265 266 266 266 267 267 267 267 268 268 268 268 269 269 269 269 269 270 270 270 270 270 271 271 271 271 272 272 272 273 273 273 273 273 273 273 273 273 273 274 274 274 274 274 274 274 274 274 274 274 274 274 274 274 274 274 274 274 274 274 275 274 274 274 274 274 274 273 273 273 273 273 273 272 272